Flag for U.S.A. Weather past 2 weeks in Pueblo, Colorado, U.S.A.

Now
58 °F

Passing clouds.


Feels Like: 57 °F
Forecast: 43 / 72 °F
Wind: 6 mph from Northeast

Location: Pueblo Memorial Airport

Current Time: May 25, 2015 at 8:54:37 PM

Latest Report: May 25, 2015 at 7:53 PM


Visibility: 10 mi

Pressure: 29.83 "Hg

Humidity: 67%

Dew point: 47 °F

Location of PuebloLocation

Historic Weather in Pueblo — Graph

°F

Pueblo temperature yesterday

Maximum temperature yesterday: 62 °F (at 1:53 PM)
Minimum temperature yesterday: 44 °F (at 4:53 AM)
Average temperature yesterday: 54 °F

Past Weeks' High & Low Weather Summary

 TemperatureHumidityPressure
High75 °F (May 12, 3:53 PM)100% (May 14, 3:53 AM)30.28 "Hg (May 14, 3:53 AM)
Low35 °F (May 11, 1:53 AM)20% (May 17, 1:53 PM)29.47 "Hg (May 16, 3:53 PM)
Average54 °F70%29.91 "Hg
* Reported May 10 7:53 PM — May 25 7:53 PM, Pueblo, Weather by CustomWeather, © 2015

Note: Actual official high and low records may vary slightly from our data, if they occured in-between our weather recording intervals... More about our weather records

Advertising

Pueblo weather history for previous 24 hours

 ConditionsComfort  
Time TempWeatherWind HumidityBarometerVisibility
7:53 PM
Mon, May 25
58 °FPassing clouds.6 mph67%29.83 "Hg10 mi
6:53 PM62 °FSunny.9 mph56%29.82 "Hg10 mi
5:53 PM60 °FSunny.14 mph58%29.82 "Hg10 mi
4:53 PM63 °FLight rain. Overcast.10 mph52%29.82 "Hg10 mi
3:53 PM65 °FPassing clouds.16 mph45%29.78 "Hg10 mi
2:53 PM68 °FSunny.17 mph47%29.77 "Hg10 mi
1:53 PM67 °FSunny.13 mph44%29.77 "Hg10 mi
12:53 PM67 °FSunny.8 mph39%29.77 "Hg10 mi
11:53 AM65 °FSunny.12 mph45%29.76 "Hg10 mi
10:53 AM61 °FSunny.5 mph56%29.79 "Hg10 mi
9:53 AM58 °FPassing clouds.No wind62%29.80 "Hg10 mi
8:53 AM56 °FSunny.No wind67%29.81 "Hg10 mi
7:53 AM50 °FPartly sunny.No wind83%29.80 "Hg10 mi
6:53 AM46 °FSunny.3 mph89%29.79 "Hg10 mi
5:53 AM43 °FClear.5 mph97%29.79 "Hg10 mi
4:53 AM43 °FClear.7 mph93%29.78 "Hg10 mi
3:53 AM44 °FClear.3 mph96%29.78 "Hg10 mi
2:53 AM46 °FClear.8 mph89%29.76 "Hg10 mi
1:53 AM46 °FClear.6 mph93%29.76 "Hg10 mi
12:53 AM49 °FClear.No wind86%29.76 "Hg10 mi
11:53 PM
Sun, May 24
50 °FClear.6 mph86%29.75 "Hg10 mi
10:53 PM51 °FClear.7 mph86%29.74 "Hg10 mi
9:53 PM53 °FPassing clouds.6 mph80%29.74 "Hg10 mi
8:53 PM54 °FPartly sunny.5 mph77%29.70 "Hg10 mi
Weather by CustomWeather, © 2015

See weather overviewHow to use our weather pages